| time (UTC) | temp F | wind direction | speed MPH | gust MPH | rain 1hr in | rain 24hr in | rain mn in | humidity % | barometer mb |
| 20260903101027 | 72 | 20 | 11.0 | 17.0 | 0.00 | 0.00 | 0.00 | 85 | 1022.0 |
| 20260903100516 | 72 | 56 | 9.0 | 17.0 | 0.00 | 0.00 | 0.00 | 86 | 1022.0 |
| 20260903100023 | 72 | 65 | 11.0 | 16.0 | 0.00 | 0.00 | 0.00 | 85 | 1021.9 |
| 20260903095513 | 72 | 52 | 10.0 | 16.0 | 0.00 | 0.00 | 0.00 | 85 | 1021.9 |
| 20260903095023 | 72 | 34 | 9.0 | 15.0 | 0.00 | 0.00 | 0.00 | 86 | 1022.0 |
| 20260903094530 | 72 | 59 | 7.0 | 17.0 | 0.00 | 0.00 | 0.00 | 86 | 1022.0 |
| 20260903094016 | 72 | 27 | 9.0 | 15.0 | 0.00 | 0.00 | 0.00 | 86 | 1022.0 |
| 20260903093525 | 72 | 28 | 7.0 | 14.0 | 0.00 | 0.00 | 0.00 | 87 | 1021.9 |
| 20260903093014 | 71 | 13 | 6.0 | 14.0 | 0.00 | 0.00 | 0.00 | 87 | 1022.0 |
| 20260903092520 | 71 | 29 | 8.0 | 13.0 | 0.00 | 0.00 | 0.00 | 88 | 1022.0 |
| 20260903092009 | 71 | 50 | 8.0 | 14.0 | 0.00 | 0.00 | 0.00 | 88 | 1022.0 |
| 20260903091517 | 71 | 23 | 7.0 | 14.0 | 0.00 | 0.00 | 0.00 | 88 | 1021.9 |
| 20260903091046 | 71 | 24 | 6.0 | 14.0 | 0.00 | 0.00 | 0.00 | 89 | 1021.9 |
| 20260903090532 | 70 | 36 | 8.0 | 14.0 | 0.00 | 0.00 | 0.00 | 89 | 1021.9 |
| 20260903090039 | 70 | 47 | 7.0 | 10.0 | 0.00 | 0.00 | 0.00 | 91 | 1021.9 |
| 20260903085546 | 70 | 9 | 4.0 | 12.0 | 0.00 | 0.00 | 0.00 | 92 | 1022.0 |
| 20260903085011 | 69 | 11 | 6.0 | 12.0 | 0.00 | 0.00 | 0.00 | 93 | 1022.0 |
| 20260903084540 | 69 | 294 | 1.0 | 7.0 | 0.00 | 0.00 | 0.00 | 94 | 1022.0 |
| 20260903084025 | 68 | 294 | 1.0 | 7.0 | 0.00 | 0.00 | 0.00 | 95 | 1022.0 |
| 20260903083512 | 68 | 301 | 2.0 | 6.0 | 0.00 | 0.00 | 0.00 | 96 | 1022.0 |
| 20260903083020 | 68 | 301 | 1.0 | 5.0 | 0.00 | 0.00 | 0.00 | 97 | 1022.0 |
| 20260903082525 | 67 | 306 | 3.0 | 5.0 | 0.00 | 0.00 | 0.00 | 98 | 1021.9 |
| 20260903082049 | 67 | 80 | 0.0 | 0.0 | 0.00 | 0.00 | 0.00 | 99 | 1021.9 |
| 20260903081515 | 66 | 80 | 0.0 | 0.0 | 0.00 | 0.00 | 0.00 | 99 | 1021.8 |
| 20260903081020 | 66 | 80 | 0.0 | 0.0 | 0.00 | 0.00 | 0.00 | 100 | 1021.8 |
| 20260903080525 | 66 | 80 | 0.0 | 0.0 | 0.00 | 0.00 | 0.00 | 100 | 1021.9 |
| 20260903080033 | 65 | 80 | 0.0 | 0.0 | 0.00 | 0.00 | 0.00 | 100 | 1021.8 |
| 20260903075521 | 65 | 80 | 0.0 | 0.0 | 0.00 | 0.00 | 0.00 | 100 | 1021.8 |
| 20260903075011 | 65 | 80 | 0.0 | 0.0 | 0.00 | 0.00 | 0.00 | 100 | 1021.9 |
| 20260903074517 | 64 | 80 | 0.0 | 0.0 | 0.00 | 0.00 | 0.00 | 100 | 1021.8 |
| 20260903074026 | 64 | 80 | 0.0 | 0.0 | 0.00 | 0.00 | 0.00 | 100 | 1021.8 |
| 20260903073515 | 64 | 80 | 0.0 | 0.0 | 0.00 | 0.00 | 0.00 | 100 | 1021.8 |
| 20260903073023 | 63 | 80 | 0.0 | 0.0 | 0.00 | 0.00 | 0.00 | 100 | 1021.9 |
| 20260903072512 | 63 | 80 | 0.0 | 0.0 | 0.00 | 0.00 | 0.00 | 100 | 1021.9 |
| 20260903072021 | 63 | 80 | 0.0 | 0.0 | 0.00 | 0.00 | 0.00 | 100 | 1021.9 |
| 20260903071510 | 62 | 80 | 0.0 | 0.0 | 0.00 | 0.00 | 0.00 | 100 | 1021.9 |
| 20260903071038 | 62 | 80 | 0.0 | 0.0 | 0.00 | 0.00 | 0.00 | 100 | 1021.8 |
| 20260903070526 | 62 | 80 | 0.0 | 0.0 | 0.00 | 0.00 | 0.00 | 100 | 1021.9 |
| 20260903070014 | 62 | 80 | 0.0 | 0.0 | 0.00 | 0.00 | 0.00 | 100 | 1021.8 |
| 20260903065522 | 62 | 80 | 0.0 | 0.0 | 0.00 | 0.00 | 0.00 | 100 | 1021.8 |
| 20260903065010 | 61 | 80 | 0.0 | 0.0 | 0.00 | 0.00 | 0.00 | 100 | 1021.8 |
| 20260903064518 | 61 | 80 | 0.0 | 0.0 | 0.00 | 0.00 | 0.00 | 100 | 1021.7 |
| 20260903064027 | 61 | 80 | 0.0 | 0.0 | 0.00 | 0.00 | 0.00 | 99 | 1021.8 |
| 20260903063515 | 61 | 80 | 0.0 | 0.0 | 0.00 | 0.00 | 0.00 | 99 | 1021.7 |
| 20260903063024 | 61 | 80 | 0.0 | 0.0 | 0.00 | 0.00 | 0.00 | 99 | 1021.7 |
| 20260903062512 | 60 | 80 | 0.0 | 0.0 | 0.00 | 0.00 | 0.00 | 99 | 1021.9 |
| 20260903062017 | 60 | 80 | 0.0 | 0.0 | 0.00 | 0.00 | 0.00 | 99 | 1021.7 |
| 20260903061525 | 60 | 80 | 0.0 | 0.0 | 0.00 | 0.00 | 0.00 | 99 | 1021.8 |
| 20260903061013 | 60 | 80 | 0.0 | 0.0 | 0.00 | 0.00 | 0.00 | 99 | 1021.8 |
| 20260903060521 | 60 | 80 | 0.0 | 0.0 | 0.00 | 0.00 | 0.00 | 99 | 1021.9 |
| 20260903060010 | 60 | 80 | 0.0 | 0.0 | 0.00 | 0.00 | 0.00 | 99 | 1021.8 |
| 20260903055516 | 60 | 80 | 0.0 | 0.0 | 0.00 | 0.00 | 0.00 | 99 | 1021.8 |
| 20260903055009 | 60 | 80 | 0.0 | 0.0 | 0.00 | 0.00 | 0.00 | 98 | 1021.8 |
| 20260903054517 | 60 | 80 | 0.0 | 0.0 | 0.00 | 0.00 | 0.00 | 98 | 1021.8 |
| 20260903054042 | 60 | 80 | 0.0 | 0.0 | 0.00 | 0.00 | 0.00 | 98 | 1021.8 |
| 20260903053513 | 60 | 80 | 0.0 | 0.0 | 0.00 | 0.00 | 0.00 | 98 | 1021.7 |
| 20260903053019 | 60 | 80 | 0.0 | 0.0 | 0.00 | 0.00 | 0.00 | 98 | 1021.8 |
| 20260903052523 | 60 | 80 | 0.0 | 0.0 | 0.00 | 0.00 | 0.00 | 98 | 1021.6 |
| 20260903052015 | 60 | 80 | 0.0 | 0.0 | 0.00 | 0.00 | 0.00 | 98 | 1021.8 |
| 20260903051523 | 60 | 80 | 0.0 | 0.0 | 0.00 | 0.00 | 0.00 | 98 | 1021.8 |
| 20260903051012 | 60 | 80 | 0.0 | 0.0 | 0.00 | 0.00 | 0.00 | 98 | 1021.8 |
| 20260903050519 | 60 | 80 | 0.0 | 0.0 | 0.00 | 0.00 | 0.00 | 98 | 1021.8 |
| 20260903050024 | 60 | 80 | 0.0 | 0.0 | 0.00 | 0.00 | 0.00 | 98 | 1021.8 |
| 20260903045512 | 61 | 80 | 0.0 | 0.0 | 0.00 | 0.00 | 0.00 | 98 | 1021.9 |
| 20260903045018 | 61 | 80 | 0.0 | 0.0 | 0.00 | 0.00 | 0.00 | 98 | 1021.9 |
| 20260903044526 | 61 | 80 | 0.0 | 0.0 | 0.00 | 0.00 | 0.00 | 98 | 1021.9 |
| 20260903044014 | 61 | 80 | 0.0 | 0.0 | 0.00 | 0.00 | 0.00 | 98 | 1021.9 |
| 20260903043522 | 61 | 80 | 0.0 | 0.0 | 0.00 | 0.00 | 0.00 | 98 | 1021.9 |
| 20260903043011 | 61 | 80 | 0.0 | 0.0 | 0.00 | 0.00 | 0.00 | 98 | 1022.0 |
| 20260903042518 | 61 | 80 | 0.0 | 0.0 | 0.00 | 0.00 | 0.00 | 98 | 1021.9 |
| 20260903042026 | 61 | 80 | 0.0 | 0.0 | 0.00 | 0.00 | 0.00 | 98 | 1021.9 |
| 20260903041514 | 61 | 80 | 0.0 | 0.0 | 0.00 | 0.00 | 0.00 | 98 | 1021.9 |
| 20260903041019 | 61 | 80 | 0.0 | 0.0 | 0.00 | 0.00 | 0.00 | 98 | 1021.9 |
| 20260903040527 | 61 | 80 | 0.0 | 0.0 | 0.00 | 0.00 | 0.00 | 98 | 1021.8 |
| 20260903040036 | 61 | 80 | 0.0 | 0.0 | 0.00 | 0.00 | 0.00 | 97 | 1021.9 |
| 20260903035522 | 61 | 80 | 0.0 | 0.0 | 0.00 | 0.00 | 0.00 | 97 | 1021.9 |
| 20260903035009 | 61 | 80 | 0.0 | 0.0 | 0.00 | 0.00 | 0.00 | 97 | 1022.0 |
| 20260903034517 | 61 | 80 | 0.0 | 0.0 | 0.00 | 0.00 | 0.00 | 97 | 1022.1 |
| 20260903034025 | 62 | 80 | 0.0 | 0.0 | 0.00 | 0.00 | 0.00 | 97 | 1022.1 |
| 20260903033513 | 62 | 80 | 0.0 | 0.0 | 0.00 | 0.00 | 0.00 | 97 | 1022.2 |
| 20260903033040 | 62 | 80 | 0.0 | 0.0 | 0.00 | 0.00 | 0.00 | 97 | 1022.2 |
| 20260903032549 | 62 | 80 | 0.0 | 0.0 | 0.00 | 0.00 | 0.00 | 97 | 1022.1 |
| 20260903032037 | 62 | 80 | 0.0 | 0.0 | 0.00 | 0.00 | 0.00 | 97 | 1022.2 |
| 20260903031524 | 62 | 80 | 0.0 | 0.0 | 0.00 | 0.00 | 0.00 | 97 | 1022.2 |
| 20260903031011 | 62 | 80 | 0.0 | 0.0 | 0.00 | 0.00 | 0.00 | 97 | 1022.2 |
| 20260903030520 | 62 | 80 | 0.0 | 0.0 | 0.00 | 0.00 | 0.00 | 97 | 1022.3 |
| 20260903030027 | 62 | 80 | 0.0 | 0.0 | 0.00 | 0.00 | 0.00 | 97 | 1022.3 |
| 20260903025515 | 62 | 80 | 0.0 | 0.0 | 0.00 | 0.00 | 0.00 | 97 | 1022.4 |
| 20260903025020 | 62 | 80 | 0.0 | 0.0 | 0.00 | 0.00 | 0.00 | 97 | 1022.4 |
| 20260903024508 | 62 | 80 | 0.0 | 0.0 | 0.00 | 0.00 | 0.00 | 97 | 1022.2 |
| 20260903024016 | 62 | 80 | 0.0 | 0.0 | 0.00 | 0.00 | 0.00 | 96 | 1022.2 |
| 20260903023524 | 62 | 80 | 0.0 | 0.0 | 0.00 | 0.00 | 0.00 | 96 | 1022.3 |
| 20260903023032 | 62 | 80 | 0.0 | 0.0 | 0.00 | 0.00 | 0.00 | 96 | 1022.2 |
| 20260903022520 | 62 | 80 | 0.0 | 0.0 | 0.00 | 0.00 | 0.00 | 96 | 1022.3 |
| 20260903022029 | 62 | 80 | 0.0 | 0.0 | 0.00 | 0.00 | 0.00 | 96 | 1022.3 |
| 20260903021538 | 62 | 80 | 0.0 | 0.0 | 0.00 | 0.00 | 0.00 | 96 | 1022.4 |
| 20260903021024 | 62 | 80 | 0.0 | 0.0 | 0.00 | 0.00 | 0.00 | 96 | 1022.4 |
| 20260903020512 | 62 | 80 | 0.0 | 0.0 | 0.00 | 0.00 | 0.00 | 96 | 1022.5 |
| 20260903020019 | 62 | 80 | 0.0 | 0.0 | 0.00 | 0.00 | 0.00 | 96 | 1022.4 |
| 20260903015526 | 62 | 80 | 0.0 | 0.0 | 0.00 | 0.00 | 0.00 | 96 | 1022.5 |
| 20260903015014 | 62 | 80 | 0.0 | 0.0 | 0.00 | 0.00 | 0.00 | 96 | 1022.5 |
| 20260903014522 | 63 | 80 | 0.0 | 0.0 | 0.00 | 0.00 | 0.00 | 96 | 1022.5 |
| 20260903014010 | 63 | 80 | 0.0 | 0.0 | 0.00 | 0.00 | 0.00 | 96 | 1022.6 |
| 20260903013519 | 63 | 80 | 0.0 | 0.0 | 0.00 | 0.00 | 0.00 | 96 | 1022.5 |
| 20260903013048 | 63 | 80 | 0.0 | 0.0 | 0.00 | 0.00 | 0.00 | 95 | 1022.6 |
| 20260903012515 | 63 | 80 | 0.0 | 0.0 | 0.00 | 0.00 | 0.00 | 95 | 1022.5 |
| 20260903012020 | 63 | 80 | 0.0 | 0.0 | 0.00 | 0.00 | 0.00 | 95 | 1022.7 |
| 20260903011528 | 63 | 80 | 0.0 | 0.0 | 0.00 | 0.00 | 0.00 | 95 | 1022.6 |
| 20260903011016 | 63 | 80 | 0.0 | 0.0 | 0.00 | 0.00 | 0.00 | 95 | 1022.6 |
| 20260903010545 | 63 | 80 | 0.0 | 0.0 | 0.00 | 0.00 | 0.00 | 95 | 1022.6 |
| 20260903010010 | 63 | 80 | 0.0 | 0.0 | 0.00 | 0.00 | 0.00 | 95 | 1022.6 |
| 20260903005518 | 63 | 80 | 0.0 | 0.0 | 0.00 | 0.00 | 0.00 | 95 | 1022.6 |
| 20260903005021 | 63 | 80 | 0.0 | 0.0 | 0.00 | 0.00 | 0.00 | 94 | 1022.7 |
| 20260903004509 | 63 | 80 | 0.0 | 0.0 | 0.00 | 0.00 | 0.00 | 94 | 1022.7 |
| 20260903004017 | 64 | 80 | 0.0 | 0.0 | 0.00 | 0.00 | 0.00 | 94 | 1022.6 |
| 20260903003524 | 64 | 80 | 0.0 | 0.0 | 0.00 | 0.00 | 0.00 | 94 | 1022.6 |
| 20260903003012 | 64 | 80 | 0.0 | 0.0 | 0.00 | 0.00 | 0.00 | 94 | 1022.6 |
| 20260903002520 | 64 | 80 | 0.0 | 0.0 | 0.00 | 0.00 | 0.00 | 94 | 1022.6 |
| 20260903002009 | 64 | 80 | 0.0 | 0.0 | 0.00 | 0.00 | 0.00 | 94 | 1022.6 |
| 20260903001517 | 64 | 80 | 0.0 | 0.0 | 0.00 | 0.00 | 0.00 | 94 | 1022.6 |
| 20260903001026 | 64 | 80 | 0.0 | 0.0 | 0.00 | 0.00 | 0.00 | 94 | 1022.7 |
| 20260903000513 | 64 | 80 | 0.0 | 0.0 | 0.00 | 0.00 | 0.00 | 94 | 1022.6 |
| 20260903000022 | 65 | 80 | 0.0 | 0.0 | 0.00 | 0.00 | 0.00 | 93 | 1022.7 |
| 20260902235510 | 65 | 80 | 0.0 | 0.0 | 0.00 | 0.00 | 0.00 | 93 | 1022.7 |
| 20260902235015 | 65 | 80 | 0.0 | 0.0 | 0.00 | 0.00 | 0.00 | 93 | 1022.7 |
| 20260902234545 | 65 | 80 | 0.0 | 0.0 | 0.00 | 0.00 | 0.00 | 93 | 1022.8 |
| 20260902234033 | 65 | 80 | 0.0 | 0.0 | 0.00 | 0.00 | 0.00 | 93 | 1022.8 |
| 20260902233519 | 65 | 80 | 0.0 | 0.0 | 0.00 | 0.00 | 0.00 | 93 | 1022.8 |
| 20260902233028 | 65 | 80 | 0.0 | 0.0 | 0.00 | 0.00 | 0.00 | 93 | 1022.8 |
| 20260902232516 | 66 | 80 | 0.0 | 0.0 | 0.00 | 0.00 | 0.00 | 93 | 1022.8 |
| 20260902232045 | 66 | 80 | 0.0 | 0.0 | 0.00 | 0.00 | 0.00 | 93 | 1022.7 |
| 20260902231512 | 66 | 80 | 0.0 | 0.0 | 0.00 | 0.00 | 0.00 | 92 | 1022.7 |
| 20260902231019 | 66 | 80 | 0.0 | 0.0 | 0.00 | 0.00 | 0.00 | 92 | 1022.8 |
| 20260902230548 | 66 | 80 | 0.0 | 0.0 | 0.00 | 0.00 | 0.00 | 92 | 1022.8 |
| 20260902230014 | 66 | 80 | 0.0 | 0.0 | 0.00 | 0.00 | 0.00 | 92 | 1022.8 |
| 20260902225522 | 66 | 80 | 0.0 | 0.0 | 0.00 | 0.00 | 0.00 | 93 | 1022.8 |
| 20260902225011 | 66 | 80 | 0.0 | 0.0 | 0.00 | 0.00 | 0.00 | 93 | 1022.8 |
| 20260902224518 | 67 | 80 | 0.0 | 0.0 | 0.00 | 0.00 | 0.00 | 93 | 1022.8 |
| 20260902224046 | 67 | 80 | 0.0 | 0.0 | 0.00 | 0.00 | 0.00 | 93 | 1022.8 |
| 20260902223514 | 67 | 80 | 0.0 | 0.0 | 0.00 | 0.00 | 0.00 | 93 | 1022.7 |
| 20260902223020 | 67 | 80 | 0.0 | 0.0 | 0.00 | 0.00 | 0.00 | 93 | 1022.7 |
| 20260902222528 | 67 | 80 | 0.0 | 0.0 | 0.00 | 0.00 | 0.00 | 93 | 1022.6 |
| 20260902222014 | 67 | 80 | 0.0 | 4.0 | 0.00 | 0.00 | 0.00 | 93 | 1022.6 |
| 20260902221523 | 68 | 80 | 0.0 | 4.0 | 0.00 | 0.00 | 0.00 | 93 | 1022.7 |
| 20260902221010 | 68 | 80 | 2.0 | 4.0 | 0.00 | 0.00 | 0.00 | 93 | 1022.7 |
| 20260902220518 | 68 | 80 | 2.0 | 4.0 | 0.00 | 0.00 | 0.00 | 93 | 1022.6 |
| 20260902220023 | 68 | 80 | 2.0 | 4.0 | 0.00 | 0.00 | 0.00 | 93 | 1022.7 |
| 20260902215512 | 68 | 80 | 0.0 | 1.0 | 0.00 | 0.00 | 0.00 | 93 | 1022.7 |
| 20260902215015 | 68 | 80 | 0.0 | 1.0 | 0.00 | 0.00 | 0.00 | 93 | 1022.7 |
| 20260902214524 | 68 | 80 | 0.0 | 1.0 | 0.00 | 0.00 | 0.00 | 92 | 1022.7 |
| 20260902214012 | 68 | 80 | 0.0 | 2.0 | 0.00 | 0.00 | 0.00 | 92 | 1022.8 |
| 20260902213519 | 68 | 80 | 0.0 | 5.0 | 0.00 | 0.00 | 0.00 | 92 | 1022.7 |
| 20260902213028 | 68 | 80 | 2.0 | 5.0 | 0.00 | 0.00 | 0.00 | 92 | 1022.6 |
| 20260902212516 | 68 | 80 | 2.0 | 5.0 | 0.00 | 0.00 | 0.00 | 92 | 1022.6 |
| 20260902212023 | 68 | 80 | 3.0 | 5.0 | 0.00 | 0.00 | 0.00 | 92 | 1022.7 |
| 20260902211511 | 68 | 84 | 1.0 | 6.0 | 0.00 | 0.00 | 0.00 | 92 | 1022.8 |
| 20260902211037 | 68 | 82 | 3.0 | 6.0 | 0.00 | 0.00 | 0.00 | 92 | 1022.7 |
| 20260902210524 | 68 | 83 | 2.0 | 6.0 | 0.00 | 0.00 | 0.00 | 92 | 1022.7 |
| 20260902210012 | 68 | 82 | 2.0 | 6.0 | 0.00 | 0.00 | 0.00 | 92 | 1022.7 |
| 20260902205521 | 68 | 82 | 0.0 | 7.0 | 0.00 | 0.00 | 0.00 | 92 | 1022.8 |
| 20260902205049 | 68 | 83 | 2.0 | 7.0 | 0.00 | 0.00 | 0.00 | 92 | 1022.8 |
| 20260902204515 | 68 | 78 | 0.0 | 5.0 | 0.00 | 0.00 | 0.00 | 92 | 1022.8 |
| 20260902204023 | 68 | 78 | 3.0 | 8.0 | 0.00 | 0.00 | 0.00 | 92 | 1022.9 |
| 20260902203512 | 69 | 84 | 3.0 | 8.0 | 0.00 | 0.00 | 0.00 | 91 | 1022.8 |
| 20260902203019 | 69 | 83 | 2.0 | 6.0 | 0.00 | 0.00 | 0.00 | 91 | 1022.8 |
| 20260902202528 | 69 | 79 | 1.0 | 7.0 | 0.00 | 0.00 | 0.00 | 91 | 1022.8 |
| 20260902202036 | 69 | 47 | 3.0 | 7.0 | 0.00 | 0.00 | 0.00 | 91 | 1022.7 |
| 20260902201524 | 69 | 40 | 3.0 | 7.0 | 0.00 | 0.00 | 0.00 | 91 | 1022.7 |
| 20260902201033 | 69 | 50 | 4.0 | 7.0 | 0.00 | 0.00 | 0.00 | 90 | 1022.7 |
| 20260902200520 | 69 | 35 | 3.0 | 7.0 | 0.00 | 0.00 | 0.00 | 90 | 1022.6 |
| 20260902200028 | 69 | 63 | 2.0 | 7.0 | 0.00 | 0.00 | 0.00 | 90 | 1022.5 |
| 20260902195516 | 69 | 51 | 3.0 | 7.0 | 0.00 | 0.00 | 0.00 | 89 | 1022.5 |
| 20260902195025 | 69 | 78 | 3.0 | 6.0 | 0.00 | 0.00 | 0.00 | 89 | 1022.5 |
| 20260902194534 | 69 | 54 | 2.0 | 10.0 | 0.00 | 0.00 | 0.00 | 89 | 1022.5 |
| 20260902194022 | 69 | 49 | 1.0 | 9.0 | 0.00 | 0.00 | 0.00 | 89 | 1022.5 |
| 20260902193510 | 70 | 62 | 4.0 | 9.0 | 0.00 | 0.00 | 0.00 | 89 | 1022.3 |
| 20260902193019 | 70 | 44 | 5.0 | 9.0 | 0.00 | 0.00 | 0.00 | 88 | 1022.2 |
| 20260902192546 | 70 | 37 | 3.0 | 8.0 | 0.00 | 0.00 | 0.00 | 88 | 1022.3 |
| 20260902192012 | 70 | 41 | 4.0 | 6.0 | 0.00 | 0.00 | 0.00 | 87 | 1022.3 |
| 20260902191520 | 70 | 59 | 3.0 | 7.0 | 0.00 | 0.00 | 0.00 | 87 | 1022.2 |
| 20260902191009 | 70 | 84 | 3.0 | 8.0 | 0.00 | 0.00 | 0.00 | 87 | 1022.3 |
| 20260902190517 | 70 | 81 | 3.0 | 9.0 | 0.00 | 0.00 | 0.00 | 86 | 1022.2 |
| 20260902190024 | 70 | 49 | 3.0 | 9.0 | 0.00 | 0.00 | 0.00 | 86 | 1022.1 |
| 20260902185516 | 71 | 48 | 4.0 | 11.0 | 0.00 | 0.00 | 0.00 | 86 | 1022.1 |
| 20260902185024 | 71 | 63 | 6.0 | 11.0 | 0.00 | 0.00 | 0.00 | 85 | 1022.1 |
| 20260902184513 | 71 | 90 | 5.0 | 12.0 | 0.00 | 0.00 | 0.00 | 85 | 1022.0 |
| 20260902184017 | 71 | 66 | 4.0 | 12.0 | 0.00 | 0.00 | 0.00 | 85 | 1022.0 |
| 20260902183524 | 71 | 32 | 7.0 | 12.0 | 0.00 | 0.00 | 0.00 | 84 | 1022.1 |
| 20260902183012 | 71 | 46 | 5.0 | 14.0 | 0.00 | 0.00 | 0.00 | 84 | 1022.2 |
| 20260902182541 | 71 | 38 | 7.0 | 14.0 | 0.00 | 0.00 | 0.00 | 84 | 1022.2 |
| 20260902182028 | 72 | 64 | 5.0 | 13.0 | 0.00 | 0.00 | 0.00 | 84 | 1022.3 |
| 20260902181516 | 72 | 59 | 7.0 | 15.0 | 0.00 | 0.00 | 0.00 | 84 | 1022.2 |
| 20260902181024 | 72 | 45 | 8.0 | 16.0 | 0.00 | 0.00 | 0.00 | 83 | 1022.3 |
| 20260902180534 | 72 | 40 | 7.0 | 16.0 | 0.00 | 0.00 | 0.00 | 83 | 1022.3 |
| 20260902180016 | 72 | 55 | 9.0 | 16.0 | 0.00 | 0.00 | 0.00 | 83 | 1022.3 |
| 20260902175524 | 72 | 43 | 6.0 | 13.0 | 0.00 | 0.00 | 0.00 | 83 | 1022.1 |
| 20260902175034 | 72 | 34 | 7.0 | 13.0 | 0.00 | 0.00 | 0.00 | 83 | 1022.2 |
| 20260902174521 | 72 | 46 | 7.0 | 12.0 | 0.00 | 0.00 | 0.00 | 82 | 1022.1 |
| 20260902174010 | 73 | 42 | 7.0 | 13.0 | 0.00 | 0.00 | 0.00 | 82 | 1022.1 |
| 20260902173518 | 73 | 5 | 6.0 | 16.0 | 0.00 | 0.00 | 0.00 | 82 | 1022.1 |
| 20260902173026 | 73 | 51 | 6.0 | 16.0 | 0.00 | 0.00 | 0.00 | 81 | 1022.2 |
| 20260902172515 | 73 | 24 | 4.0 | 13.0 | 0.00 | 0.00 | 0.00 | 82 | 1022.0 |
| 20260902172020 | 73 | 57 | 6.0 | 16.0 | 0.00 | 0.00 | 0.00 | 82 | 1022.0 |
| 20260902171508 | 73 | 67 | 6.0 | 16.0 | 0.00 | 0.00 | 0.00 | 82 | 1021.9 |
| 20260902171017 | 73 | 45 | 8.0 | 15.0 | 0.00 | 0.00 | 0.00 | 82 | 1021.9 |
| 20260902170525 | 73 | 64 | 6.0 | 18.0 | 0.00 | 0.00 | 0.00 | 83 | 1022.0 |
| 20260902170033 | 73 | 53 | 10.0 | 18.0 | 0.00 | 0.00 | 0.00 | 82 | 1021.9 |
| 20260902165542 | 73 | 52 | 9.0 | 15.0 | 0.00 | 0.00 | 0.00 | 82 | 1021.9 |
| 20260902165010 | 73 | 44 | 11.0 | 15.0 | 0.00 | 0.00 | 0.00 | 82 | 1021.9 |
| 20260902164518 | 73 | 18 | 8.0 | 16.0 | 0.00 | 0.00 | 0.00 | 82 | 1021.9 |
| 20260902164026 | 73 | 62 | 7.0 | 16.0 | 0.00 | 0.00 | 0.00 | 82 | 1021.9 |
| 20260902163535 | 73 | 55 | 9.0 | 16.0 | 0.00 | 0.00 | 0.00 | 82 | 1022.0 |
| 20260902163040 | 73 | 59 | 11.0 | 18.0 | 0.00 | 0.00 | 0.00 | 82 | 1022.0 |
| 20260902162527 | 73 | 51 | 11.0 | 18.0 | 0.00 | 0.00 | 0.00 | 81 | 1021.9 |
| 20260902162016 | 73 | 40 | 11.0 | 16.0 | 0.00 | 0.00 | 0.00 | 80 | 1021.9 |
| 20260902161545 | 73 | 19 | 8.0 | 17.0 | 0.00 | 0.00 | 0.00 | 80 | 1021.9 |
| 20260902161011 | 73 | 34 | 9.0 | 17.0 | 0.00 | 0.00 | 0.00 | 79 | 1021.8 |
| 20260902160541 | 73 | 35 | 8.0 | 15.0 | 0.00 | 0.00 | 0.00 | 79 | 1021.9 |
| 20260902160026 | 73 | 30 | 8.0 | 18.0 | 0.00 | 0.00 | 0.00 | 79 | 1022.0 |
| 20260902155515 | 73 | 51 | 10.0 | 18.0 | 0.00 | 0.00 | 0.00 | 79 | 1022.0 |
| 20260902155023 | 73 | 31 | 10.0 | 18.0 | 0.00 | 0.00 | 0.00 | 78 | 1022.0 |
| 20260902154511 | 73 | 50 | 10.0 | 18.0 | 0.00 | 0.00 | 0.00 | 78 | 1022.0 |
| 20260902154018 | 73 | 30 | 9.0 | 16.0 | 0.00 | 0.00 | 0.00 | 79 | 1021.9 |
| 20260902153526 | 73 | 114 | 7.0 | 18.0 | 0.00 | 0.00 | 0.00 | 79 | 1021.9 |
| 20260902153013 | 73 | 44 | 10.0 | 18.0 | 0.00 | 0.00 | 0.00 | 79 | 1022.1 |
| 20260902152520 | 73 | 65 | 9.0 | 17.0 | 0.00 | 0.00 | 0.00 | 79 | 1022.1 |
| 20260902152027 | 73 | 51 | 9.0 | 18.0 | 0.00 | 0.00 | 0.00 | 79 | 1022.2 |
| 20260902151516 | 73 | 41 | 11.0 | 20.0 | 0.00 | 0.00 | 0.00 | 79 | 1022.1 |
| 20260902150018 | 74 | 65 | 8.0 | 18.0 | 0.00 | 0.00 | 0.00 | 78 | 1022.2 |
| 20260902145551 | 74 | 87 | 7.0 | 18.0 | 0.00 | 0.00 | 0.00 | 78 | 1022.1 |
| 20260902141519 | 74 | 48 | 9.0 | 15.0 | 0.00 | 0.00 | 0.00 | 75 | 1022.1 |
| 20260902141027 | 74 | 58 | 7.0 | 18.0 | 0.00 | 0.00 | 0.00 | 76 | 1022.2 |
| 20260902140535 | 74 | 36 | 11.0 | 19.0 | 0.00 | 0.00 | 0.00 | 76 | 1022.2 |
| 20260902140023 | 74 | 43 | 13.0 | 19.0 | 0.00 | 0.00 | 0.00 | 74 | 1022.3 |
| 20260902135512 | 74 | 51 | 9.0 | 16.0 | 0.00 | 0.00 | 0.00 | 76 | 1022.2 |
| 20260902135020 | 74 | 37 | 6.0 | 18.0 | 0.00 | 0.00 | 0.00 | 75 | 1022.2 |
| 20260902134509 | 73 | 43 | 12.0 | 18.0 | 0.00 | 0.00 | 0.00 | 73 | 1022.2 |
| 20260902134014 | 74 | 19 | 10.0 | 17.0 | 0.00 | 0.00 | 0.00 | 72 | 1022.2 |
| 20260902133522 | 74 | 62 | 9.0 | 16.0 | 0.00 | 0.00 | 0.00 | 72 | 1022.3 |
| 20260902133011 | 74 | 76 | 8.0 | 16.0 | 0.00 | 0.00 | 0.00 | 73 | 1022.2 |
| 20260902132517 | 74 | 54 | 10.0 | 17.0 | 0.00 | 0.00 | 0.00 | 78 | 1022.2 |
| 20260902132026 | 74 | 22 | 8.0 | 17.0 | 0.00 | 0.00 | 0.00 | 74 | 1022.2 |
| 20260902131513 | 74 | 45 | 8.0 | 15.0 | 0.00 | 0.00 | 0.00 | 75 | 1022.2 |
| 20260902131021 | 73 | 126 | 8.0 | 15.0 | 0.00 | 0.00 | 0.00 | 75 | 1022.3 |
| 20260902130531 | 73 | 22 | 9.0 | 15.0 | 0.00 | 0.00 | 0.00 | 75 | 1022.3 |
| 20260902130017 | 74 | 19 | 9.0 | 15.0 | 0.00 | 0.00 | 0.00 | 75 | 1022.3 |
| 20260902125526 | 74 | 12 | 6.0 | 17.0 | 0.00 | 0.00 | 0.00 | 76 | 1022.3 |
| 20260902125011 | 74 | 23 | 6.0 | 17.0 | 0.00 | 0.00 | 0.00 | 76 | 1022.4 |
| 20260902124519 | 74 | 26 | 8.0 | 18.0 | 0.00 | 0.00 | 0.00 | 74 | 1022.3 |
| 20260902124027 | 74 | 25 | 6.0 | 16.0 | 0.00 | 0.00 | 0.00 | 75 | 1022.4 |
| 20260902123537 | 74 | 92 | 9.0 | 16.0 | 0.00 | 0.00 | 0.00 | 74 | 1022.3 |
| 20260902123024 | 74 | 40 | 8.0 | 17.0 | 0.00 | 0.00 | 0.00 | 74 | 1022.4 |
| 20260902122512 | 75 | 53 | 9.0 | 17.0 | 0.00 | 0.00 | 0.00 | 73 | 1022.4 |
| 20260902122022 | 74 | 45 | 6.0 | 14.0 | 0.00 | 0.00 | 0.00 | 73 | 1022.4 |
| 20260902121509 | 75 | 49 | 6.0 | 14.0 | 0.00 | 0.00 | 0.00 | 73 | 1022.4 |
| 20260902121038 | 75 | 94 | 6.0 | 12.0 | 0.00 | 0.00 | 0.00 | 74 | 1022.4 |
| 20260902120525 | 74 | 61 | 7.0 | 12.0 | 0.00 | 0.00 | 0.00 | 73 | 1022.5 |
| 20260902120013 | 74 | 77 | 6.0 | 15.0 | 0.00 | 0.00 | 0.00 | 74 | 1022.4 |
| 20260902115522 | 74 | 45 | 6.0 | 14.0 | 0.00 | 0.00 | 0.00 | 74 | 1022.5 |
| 20260902115010 | 74 | 62 | 5.0 | 11.0 | 0.00 | 0.00 | 0.00 | 76 | 1022.4 |
| 20260902114518 | 74 | 40 | 5.0 | 11.0 | 0.00 | 0.00 | 0.00 | 78 | 1022.5 |
| 20260902114027 | 73 | 61 | 6.0 | 16.0 | 0.00 | 0.00 | 0.00 | 79 | 1022.4 |
| 20260902113535 | 73 | 62 | 10.0 | 16.0 | 0.00 | 0.00 | 0.00 | 79 | 1022.4 |
| 20260902113023 | 73 | 55 | 6.0 | 15.0 | 0.00 | 0.00 | 0.00 | 79 | 1022.5 |
| 20260902112510 | 73 | 34 | 8.0 | 14.0 | 0.00 | 0.00 | 0.00 | 79 | 1022.5 |
| 20260902112015 | 73 | 22 | 7.0 | 16.0 | 0.00 | 0.00 | 0.00 | 80 | 1022.5 |
| 20260902111524 | 73 | 46 | 9.0 | 16.0 | 0.00 | 0.00 | 0.00 | 79 | 1022.5 |
| 20260902111031 | 73 | 17 | 7.0 | 14.0 | 0.00 | 0.00 | 0.00 | 80 | 1022.5 |
| 20260902110518 | 73 | 57 | 10.0 | 14.0 | 0.00 | 0.00 | 0.00 | 79 | 1022.6 |
| 20260902110026 | 73 | 16 | 6.0 | 12.0 | 0.00 | 0.00 | 0.00 | 79 | 1022.6 |
| 20260902105515 | 73 | 43 | 6.0 | 14.0 | 0.00 | 0.00 | 0.00 | 79 | 1022.4 |
| 20260902105043 | 73 | 30 | 9.0 | 14.0 | 0.00 | 0.00 | 0.00 | 79 | 1022.5 |
| 20260902104511 | 73 | 345 | 9.0 | 14.0 | 0.00 | 0.00 | 0.00 | 79 | 1022.4 |
| 20260902104019 | 73 | 5 | 9.0 | 15.0 | 0.00 | 0.00 | 0.00 | 78 | 1022.5 |
| 20260902103510 | 73 | 46 | 7.0 | 16.0 | 0.00 | 0.00 | 0.00 | 78 | 1022.5 |
| 20260902103018 | 73 | 62 | 11.0 | 16.0 | 0.00 | 0.00 | 0.00 | 77 | 1022.5 |
| 20260902102543 | 72 | 47 | 8.0 | 15.0 | 0.00 | 0.00 | 0.00 | 76 | 1022.5 |
| 20260902102014 | 72 | 23 | 7.0 | 14.0 | 0.00 | 0.00 | 0.00 | 79 | 1022.4 |
| 20260902101539 | 72 | 9 | 9.0 | 14.0 | 0.00 | 0.00 | 0.00 | 78 | 1022.4 |